Rochester, NY

12:00 AM EST on December 11, 2017 (GMT -0500)
Greater Rochester International

Weather History for KROC - August, 2013

Change the Weather History Date:

Thursday, August 1, 2013

  Actual Average Record
Temperature  
Mean Temperature 71 °F 71 °F  
Max Temperature 78 °F 81 °F 96 °F (1933)
Min Temperature 63 °F 61 °F 48 °F (1947)
Degree Days  
Heating Degree Days 0 0  
Month to date heating degree days 0 0  
Since 1 June heating degree days 66 80  
Since 1 July heating degree days 8 12  
Cooling Degree Days 6 6  
Month to date cooling degree days 6 6  
Year to date cooling degree days 445 335  
Since 1 June cooling degree days 374 305  
Growing Degree Days 21 (Base 50)    
Moisture  
Dew Point 63 °F    
Average Humidity 79    
Maximum Humidity 100    
Minimum Humidity 58    
Precipitation  
Precipitation 0.37 in 0.12 in 0.91 in (1938)
Month to date precipitation 0.37 0.12  
Year to date precipitation 22.88 19.25  
Snow  
Snow 0.00 in 0.00 in 0.00 in ()
Month to date snowfall 0.0 0.0  
Since 1 June snowfall 0.0 0.0  
Since 1 July snowfall 0.0 0.0  
Snow Depth 0.00 in    
Sea Level Pressure  
Sea Level Pressure 29.84 in    
Wind  
Wind Speed 7 mph (WSW)    
Max Wind Speed 22 mph    
Max Gust Speed 28 mph    
Visibility 6 miles    
Events Rain    
T = Trace of Precipitation, MM = Missing Value Source: NWS Daily Summary

Daily Weather History Graph

Daily Weather History Graph

Search for Another Location

Airport or City:

Trip Planner

Search our weather history database for the weather conditions in past years. The results will help you decide how hot, cold, wet, or windy it might be!

Date:

Astronomy

Aug. 01, 2013 Rise Set
Actual Time 6:01 AM EDT 8:31 PM EDT
Civil Twilight 5:29 AM EDT 9:04 PM EDT
Nautical Twilight 4:48 AM EDT 9:44 PM EDT
Astronomical Twilight 4:03 AM EDT 10:29 PM EDT
Moon 1:35 AM EDT (8/1) 4:40 PM EDT (8/1)
Length of Visible Light 15h 34m
Length of Day
14h 30m
Waning Crescent, 23% of the Moon is Illuminated
Aug 1
Waning Crescent
Aug 6
New
Aug 14
First Quarter
Aug 20
Full
Aug 28
Last Quarter

Hourly Weather History & Observations

Time (EDT) Temp. Dew Point Humidity Pressure Visibility Wind Dir Wind Speed Gust Speed Precip Events Conditions
12:54 AM 64.9 °F 63.0 °F 93% 29.93 in 7.0 mi SSW 4.6 mph - N/A   Mostly Cloudy
1:54 AM 64.9 °F 62.1 °F 90% 29.90 in 6.0 mi Calm Calm - N/A   Mostly Cloudy
2:54 AM 64.9 °F 62.1 °F 90% 29.87 in 7.0 mi Calm Calm - N/A   Mostly Cloudy
3:54 AM 64.9 °F 62.1 °F 90% 29.85 in 8.0 mi Calm Calm - N/A   Overcast
4:54 AM 66.0 °F 61.0 °F 84% 29.84 in 10.0 mi South 4.6 mph - N/A   Overcast
5:54 AM 66.0 °F 62.1 °F 87% 29.84 in 6.0 mi SW 3.5 mph - 0.00 in Rain Light Rain
6:37 AM 64.4 °F 62.6 °F 94% 29.84 in 1.8 mi SW 8.1 mph - 0.01 in Rain Light Rain
6:54 AM 64.9 °F 63.0 °F 93% 29.84 in 1.5 mi SSW 3.5 mph - 0.07 in Rain Light Rain
7:54 AM 64.9 °F 64.0 °F 97% 29.85 in 1.0 mi West 3.5 mph - 0.08 in Rain Rain
8:01 AM 64.4 °F 64.4 °F 100% 29.84 in 0.8 mi Calm Calm - 0.08 in Rain Heavy Rain
8:08 AM 64.4 °F 64.4 °F 100% 29.83 in 0.8 mi South 9.2 mph - 0.10 in Rain Light Rain
8:34 AM 66.2 °F 64.4 °F 94% 29.81 in 2.0 mi Calm Calm - 0.18 in Rain Light Rain
8:46 AM 66.2 °F 64.4 °F 94% 29.81 in 1.5 mi NNW 3.5 mph - 0.19 in Rain Rain
8:54 AM 66.0 °F 64.9 °F 96% 29.83 in 1.5 mi NW 3.5 mph - 0.21 in Rain Rain
9:08 AM 66.2 °F 66.2 °F 100% 29.81 in 2.5 mi Calm Calm - 0.00 in Rain Light Rain
9:18 AM 66.2 °F 64.4 °F 94% 29.81 in 3.0 mi Calm Calm - 0.00 in Rain Light Rain
9:54 AM 68.0 °F 66.0 °F 93% 29.81 in 2.5 mi Calm Calm - 0.01 in   Overcast
10:10 AM 69.8 °F 66.2 °F 88% 29.80 in 3.0 mi South 5.8 mph - N/A   Mostly Cloudy
10:54 AM 72.0 °F 66.0 °F 81% 29.80 in 6.0 mi SSW 9.2 mph - N/A   Overcast
11:54 AM 75.9 °F 66.9 °F 74% 29.79 in 10.0 mi SW 17.3 mph - N/A   Overcast
12:54 PM 71.1 °F 64.9 °F 81% 29.81 in 9.0 mi WNW 15.0 mph 27.6 mph 0.00 in Rain Light Rain
12:58 PM 71.6 °F 64.4 °F 78% 29.81 in 9.0 mi NW 11.5 mph 27.6 mph 0.00 in Rain Light Rain
1:54 PM 73.9 °F 63.0 °F 68% 29.82 in 10.0 mi NW 15.0 mph 21.9 mph 0.00 in   Mostly Cloudy
2:54 PM 77.0 °F 64.0 °F 64% 29.83 in 10.0 mi West 15.0 mph 20.7 mph N/A   Mostly Cloudy
3:54 PM 75.9 °F 61.0 °F 60% 29.83 in 10.0 mi West 13.8 mph 21.9 mph N/A   Scattered Clouds
4:54 PM 75.9 °F 60.1 °F 58% 29.84 in 10.0 mi NW 10.4 mph - N/A   Scattered Clouds
5:54 PM 75.0 °F 59.0 °F 57% 29.83 in 10.0 mi WNW 8.1 mph - N/A   Scattered Clouds
6:54 PM 73.9 °F 61.0 °F 64% 29.84 in 10.0 mi West 6.9 mph - N/A   Mostly Cloudy
7:54 PM 72.0 °F 57.9 °F 61% 29.86 in 10.0 mi West 6.9 mph - N/A   Mostly Cloudy
8:54 PM 68.0 °F 61.0 °F 78% 29.85 in 10.0 mi WSW 4.6 mph - N/A   Scattered Clouds
9:54 PM 66.0 °F 62.1 °F 87% 29.86 in 10.0 mi SW 3.5 mph - N/A   Scattered Clouds
10:54 PM 64.9 °F 62.1 °F 90% 29.86 in 10.0 mi WSW 5.8 mph - N/A   Mostly Cloudy
11:54 PM 64.0 °F 61.0 °F 90% 29.86 in 10.0 mi WSW 4.6 mph - N/A   Scattered Clouds